Cody, WY

11:31 PM MST on December 13, 2017 (GMT -0700)
Yellowstone Regional

Weather History for KCOD - January, 2011

Change the Weather History Date:

Saturday, January 22, 2011

  Actual Average Record
Temperature  
Mean Temperature 34 °F -  
Max Temperature 39 °F 37 °F 57 °F (1934)
Min Temperature 30 °F 16 °F -27 °F (1962)
Degree Days  
Heating Degree Days 30    
Moisture  
Dew Point 19 °F    
Average Humidity 53    
Maximum Humidity 80    
Minimum Humidity 36    
Precipitation  
Precipitation 0.00 in - - ()
Sea Level Pressure  
Sea Level Pressure 29.80 in    
Wind  
Wind Speed 11 mph (WNW)    
Max Wind Speed 21 mph    
Max Gust Speed 30 mph    
Visibility 10 miles    
Events      
Averages and records for this station are not official NWS values.
T = Trace of Precipitation, MM = Missing Value Source: NWS Daily Summary

Daily Weather History Graph

Daily Weather History Graph

Search for Another Location

Airport or City:

Trip Planner

Search our weather history database for the weather conditions in past years. The results will help you decide how hot, cold, wet, or windy it might be!

Date:

Astronomy

Jan. 22, 2011 Rise Set
Actual Time 7:44 AM MST 5:11 PM MST
Civil Twilight 7:12 AM MST 5:43 PM MST
Nautical Twilight 6:37 AM MST 6:18 PM MST
Astronomical Twilight 6:02 AM MST 6:53 PM MST
Moon 9:15 PM MST (1/22) 9:02 AM MST (1/22)
Length of Visible Light 10h 30m
Length of Day
9h 26m
Waning Gibbous, 88% of the Moon is Illuminated
Jan 22
Waning Gibbous
Jan 26
Last Quarter
Feb 2
New
Feb 11
First Quarter
Feb 18
Full

Hourly Weather History & Observations

Time (MST) Temp. Windchill Dew Point Humidity Pressure Visibility Wind Dir Wind Speed Gust Speed Precip Events Conditions
12:15 AM 37.4 °F 28.9 °F 26.6 °F 65% 29.58 in 10.0 mi West 13.8 mph 26.5 mph N/A   Scattered Clouds
12:35 AM 37.4 °F 34.9 °F 24.8 °F 60% 29.56 in 10.0 mi West 3.5 mph 23.0 mph N/A   Clear
12:55 AM 39.2 °F 31.6 °F 21.2 °F 49% 29.60 in 10.0 mi NW 12.7 mph 25.3 mph N/A   Partly Cloudy
1:15 AM 39.2 °F 37.0 °F 19.4 °F 45% 29.62 in 10.0 mi SSE 3.5 mph - N/A   Mostly Cloudy
1:35 AM 37.4 °F 30.3 °F 21.2 °F 52% 29.63 in 10.0 mi West 10.4 mph 26.5 mph N/A   Mostly Cloudy
1:55 AM 39.2 °F 33.0 °F 21.2 °F 49% 29.64 in 10.0 mi West 9.2 mph 24.2 mph N/A   Overcast
2:15 AM 39.2 °F 31.2 °F 21.2 °F 49% 29.65 in 10.0 mi West 13.8 mph 20.7 mph N/A   Overcast
2:35 AM 37.4 °F 29.3 °F 21.2 °F 52% 29.64 in 10.0 mi WSW 12.7 mph 25.3 mph N/A   Mostly Cloudy
2:55 AM 37.4 °F 30.8 °F 21.2 °F 52% 29.64 in 10.0 mi West 9.2 mph 18.4 mph N/A   Mostly Cloudy
3:15 AM 37.4 °F 27.8 °F 19.4 °F 48% 29.64 in 10.0 mi West 17.3 mph 23.0 mph N/A   Mostly Cloudy
3:35 AM 37.4 °F 27.8 °F 21.2 °F 52% 29.64 in 10.0 mi West 17.3 mph 29.9 mph N/A   Overcast
3:55 AM 35.6 °F 27.1 °F 21.2 °F 56% 29.66 in 10.0 mi West 12.7 mph 24.2 mph N/A   Overcast
4:15 AM 35.6 °F 31.7 °F 21.2 °F 56% 29.67 in 10.0 mi West 4.6 mph - N/A   Overcast
4:35 AM 33.8 °F 27.7 °F 21.2 °F 60% 29.67 in 10.0 mi WNW 6.9 mph - N/A   Mostly Cloudy
4:55 AM 33.8 °F 26.4 °F 21.2 °F 60% 29.69 in 10.0 mi West 9.2 mph - N/A   Mostly Cloudy
5:15 AM 32.0 °F 24.2 °F 24.8 °F 75% 29.69 in 10.0 mi WNW 9.2 mph - N/A   Mostly Cloudy
5:35 AM 33.8 °F 23.2 °F 21.2 °F 60% 29.69 in 10.0 mi West 17.3 mph 25.3 mph N/A   Scattered Clouds
5:55 AM 30.2 °F 20.8 °F 24.8 °F 80% 29.69 in 10.0 mi West 11.5 mph 19.6 mph N/A   Clear
6:15 AM 33.8 °F 23.5 °F 19.4 °F 56% 29.70 in 10.0 mi West 16.1 mph 28.8 mph N/A   Partly Cloudy
6:35 AM 32.0 °F 22.5 °F 23.0 °F 69% 29.70 in 10.0 mi West 12.7 mph 18.4 mph N/A   Clear
6:55 AM 33.8 °F 25.8 °F 21.2 °F 60% 29.72 in 10.0 mi West 10.4 mph 18.4 mph N/A   Clear
7:15 AM 32.0 °F 24.8 °F 19.4 °F 60% 29.73 in 10.0 mi WNW 8.1 mph - N/A   Clear
7:35 AM 32.0 °F 23.6 °F 19.4 °F 60% 29.73 in 10.0 mi West 10.4 mph 20.7 mph N/A   Clear
7:55 AM 32.0 °F 26.4 °F 15.8 °F 51% 29.74 in 10.0 mi NW 5.8 mph - N/A   Clear
8:15 AM 33.8 °F 25.3 °F 14.0 °F 44% 29.76 in 10.0 mi NW 11.5 mph 19.6 mph N/A   Clear
8:35 AM 33.8 °F 25.3 °F 15.8 °F 48% 29.78 in 10.0 mi West 11.5 mph 16.1 mph N/A   Clear
8:55 AM 32.0 °F 24.2 °F 17.6 °F 55% 29.79 in 10.0 mi NW 9.2 mph 16.1 mph N/A   Clear
9:15 AM 33.8 °F 25.8 °F 14.0 °F 44% 29.80 in 10.0 mi WNW 10.4 mph - N/A   Scattered Clouds
9:35 AM 33.8 °F 25.8 °F 14.0 °F 44% 29.81 in 10.0 mi NW 10.4 mph - N/A   Scattered Clouds
9:55 AM 35.6 °F 28.0 °F 12.2 °F 38% 29.83 in 10.0 mi NW 10.4 mph 19.6 mph N/A   Mostly Cloudy
10:15 AM 35.6 °F 27.1 °F 12.2 °F 38% 29.84 in 10.0 mi NW 12.7 mph 17.3 mph N/A   Overcast
10:35 AM 35.6 °F 27.5 °F 12.2 °F 38% 29.86 in 10.0 mi WNW 11.5 mph 18.4 mph N/A   Mostly Cloudy
10:55 AM 37.4 °F 31.4 °F 12.2 °F 36% 29.88 in 10.0 mi WNW 8.1 mph 17.3 mph N/A   Overcast
11:15 AM 37.4 °F 29.3 °F 12.2 °F 36% 29.88 in 10.0 mi WNW 12.7 mph 17.3 mph N/A   Overcast
11:35 AM 37.4 °F 28.9 °F 12.2 °F 36% 29.89 in 10.0 mi NW 13.8 mph - N/A   Overcast
11:55 AM 35.6 °F 26.6 °F 14.0 °F 41% 29.91 in 10.0 mi NW 13.8 mph 23.0 mph N/A   Overcast
12:15 PM 35.6 °F 27.5 °F 15.8 °F 44% 29.92 in 10.0 mi WNW 11.5 mph 18.4 mph N/A   Overcast
12:35 PM 35.6 °F 28.0 °F 15.8 °F 44% 29.93 in 10.0 mi NW 10.4 mph - N/A   Overcast
12:55 PM 35.6 °F 26.6 °F 15.8 °F 44% 29.93 in 10.0 mi NW 13.8 mph - N/A   Overcast
1:15 PM 35.6 °F 27.5 °F 15.8 °F 44% 29.93 in 10.0 mi North 11.5 mph 18.4 mph N/A   Overcast
1:35 PM 33.8 °F 22.2 °F 19.4 °F 56% 29.95 in 10.0 mi North 20.7 mph 26.5 mph N/A   Overcast
1:55 PM 33.8 °F 23.5 °F 21.2 °F 60% 29.96 in 10.0 mi North 16.1 mph 20.7 mph N/A   Overcast
2:15 PM 33.8 °F 22.2 °F 21.2 °F 60% 29.98 in 10.0 mi NNW 20.7 mph 24.2 mph N/A   Overcast
2:35 PM 33.8 °F 22.8 °F 21.2 °F 60% 29.99 in 10.0 mi NNW 18.4 mph 23.0 mph N/A   Overcast
2:55 PM 33.8 °F 23.2 °F 21.2 °F 60% 30.00 in 10.0 mi NNW 17.3 mph - N/A   Overcast
3:15 PM 33.8 °F 23.5 °F 21.2 °F 60% 30.01 in 10.0 mi North 16.1 mph 20.7 mph N/A   Overcast
3:35 PM 33.8 °F 23.9 °F 19.4 °F 56% 30.01 in 10.0 mi NNW 15.0 mph 20.7 mph N/A   Overcast
3:55 PM 33.8 °F 23.9 °F 19.4 °F 56% 30.02 in 10.0 mi NNW 15.0 mph 20.7 mph N/A   Overcast
4:15 PM 33.8 °F 26.4 °F 19.4 °F 56% 30.02 in 10.0 mi NW 9.2 mph - N/A   Overcast
4:35 PM 33.8 °F 28.6 °F 19.4 °F 56% 30.03 in 10.0 mi WNW 5.8 mph - N/A   Overcast
4:55 PM 33.8 °F 29.6 °F 19.4 °F 56% 30.03 in 10.0 mi West 4.6 mph - N/A   Overcast
5:15 PM 32.0 °F 27.5 °F 19.4 °F 60% 30.03 in 10.0 mi West 4.6 mph - N/A   Mostly Cloudy
5:35 PM 28.4 °F 21.2 °F 19.4 °F 69% 30.04 in 10.0 mi North 6.9 mph - N/A   Mostly Cloudy
5:55 PM 30.2 °F 24.3 °F 19.4 °F 64% 30.04 in 10.0 mi NNW 5.8 mph - N/A   Overcast
6:15 PM 28.4 °F - 17.6 °F 64% 30.05 in 10.0 mi Calm Calm - N/A   Partly Cloudy
6:35 PM 26.6 °F - 19.4 °F 74% 30.04 in 10.0 mi Calm Calm - N/A   Clear
7:15 PM 23.0 °F - 19.4 °F 86% 30.05 in 10.0 mi Calm Calm - N/A   Clear
7:35 PM 24.8 °F 20.5 °F 19.4 °F 80% 30.05 in 10.0 mi SE 3.5 mph - N/A   Clear
7:55 PM 21.2 °F 14.9 °F 17.6 °F 86% 30.05 in 10.0 mi ESE 4.6 mph - N/A   Clear
8:15 PM 24.8 °F 20.5 °F 17.6 °F 74% 30.05 in 10.0 mi SSW 3.5 mph - N/A   Clear
8:35 PM 28.4 °F 22.2 °F 12.2 °F 51% 30.04 in 10.0 mi SW 5.8 mph - N/A   Clear
8:55 PM 30.2 °F 20.2 °F 12.2 °F 47% 30.03 in 10.0 mi WSW 12.7 mph 19.6 mph N/A   Clear
9:15 PM 30.2 °F 20.2 °F 12.2 °F 47% 30.03 in 10.0 mi WSW 12.7 mph 20.7 mph N/A   Clear
9:35 PM 32.0 °F 23.0 °F 10.4 °F 41% 30.02 in 10.0 mi WSW 11.5 mph 24.2 mph N/A   Clear
9:55 PM 32.0 °F 21.2 °F 10.4 °F 41% 30.01 in 10.0 mi SW 16.1 mph 24.2 mph N/A   Clear
10:15 PM 32.0 °F 20.5 °F 10.4 °F 41% 30.00 in 10.0 mi SW 18.4 mph 31.1 mph N/A   Clear
10:35 PM 32.0 °F 20.1 °F 10.4 °F 41% 30.00 in 10.0 mi SW 19.6 mph 32.2 mph N/A   Clear
10:55 PM 32.0 °F 20.1 °F 10.4 °F 41% 30.00 in 10.0 mi SW 19.6 mph 27.6 mph N/A   Clear
11:15 PM 32.0 °F 21.6 °F 10.4 °F 41% 29.99 in 10.0 mi SW 15.0 mph 25.3 mph N/A   Clear
11:35 PM 33.8 °F 23.2 °F 8.6 °F 35% 29.98 in 10.0 mi SW 17.3 mph 35.7 mph N/A   Clear
11:55 PM 33.8 °F 22.8 °F 10.4 °F 38% 29.97 in 10.0 mi SW 18.4 mph 35.7 mph N/A   Clear